Location: Chipmunk Meadow
(41.1540°N, 122.8814°W)
Time: 14:35:21
(UTC+00:00)

Cosmos 921 Rocket - Pass Details

Date: 13 April 2024
Orbit: 567 x 626 km, 75.8° (Epoch: 21 May)

Event Time Altitude Azimuth Distance (km) Brightness Sun altitude
Exits shadow 12:19:38 15° 203° (SSW) 1,570 4.7 -14.1°
Maximum altitude 12:23:01 73° 288° (WNW) 615 2.9 -13.5°
Drops below altitude 10° 12:27:19 10° 13° (NNE) 1,934 6.1 -12.8°
Sets 12:29:35 0° 16° (NNE) 2,851 7.1 -12.4°
